x

Canaveral 20 Nm East Of Cape Canaveral, Fl (41009) Wave Buoy

3:50pm - Sat 28th Feb 2015 All times are EST. -5 hours from GMT.

  • Sig Wave height 9.2ft
  • Swell Direction
  • Peak Period 8s
  • Average Period 6s
  • Wind
    25mph, 29mph gusts
  • Sea Temp 69°f
  • Air Temp 70°f
  • Sea Pressure 1025.6mb
  • Canaveral 20 Nm East Of Cape Canaveral, Fl
  • Canaveral 20 Nm East Of Cape Canaveral, Fl

More Historic Weather Station data

Upgrade to MSW Pro to gain access to the past 30 days of data for over 8000 Wavebouys and Weather Stations around the globe.

Join Pro

Comparision Forecast

View Surf forecast
   
Sat 02/28 3:50pm 9ft 8s 6s 25 29 mph 1025.6mb 69f 70f
3:20pm  -   -   -  27 34 mph 1025.3mb 69f 70f
2:50pm 8.5ft 8s 6s 25 29 mph 1025.9mb 69f 70f
2:20pm  -   -   -  27 31 mph 1026mb 69f 70f
1:50pm 9ft 8s 6s 25 31 mph 1026.3mb 69f 70f
1:20pm  -   -   -  25 31 mph 1026.5mb 69f 70f
12:50pm 9ft 8s 6s 27 31 mph 1026.8mb 69f 70f
12:20pm  -   -   -  25 31 mph 1027mb 69f 69f
11:50am 8ft 8s 6s 27 31 mph 1027mb 69f 69f
11:20am  -   -   -  27 31 mph 1027.5mb 69f 69f
10:50am 8ft 8s 6s 27 31 mph 1027.5mb 69f 69f
10:20am  -   -   -  27 31 mph 1027.3mb 69f 69f
9:50am 8ft 8s 6s 27 34 mph 1026.8mb 69f 69f
9:20am  -   -   -  27 34 mph 1026.6mb 69f 69f
8:50am 8ft 7s 6s 27 31 mph 1026.5mb 69f 69f
8:20am  -   -   -  25 31 mph 1026.1mb 69f 69f
7:50am 8.5ft 7s 6s 25 29 mph 1025.7mb 69f 68f
7:20am  -   -   -  25 29 mph 1025.2mb 69f 68f
6:50am 7ft 7s 6s 22 29 mph 1025mb 69f 68f
6:20am  -   -   -  25 29 mph 1024.5mb 69f 68f
5:50am 7.5ft 7s 6s 22 27 mph 1024.4mb 69f 68f
5:20am  -   -   -  22 27 mph 1024.2mb 69f 67f
4:50am 7ft 7s 6s 20 27 mph 1024.1mb 69f 67f
4:20am  -   -   -  22 25 mph 1023.7mb 69f 67f
3:50am 6.5ft 7s 6s 20 25 mph 1023.5mb 69f 68f
3:20am  -   -   -  20 27 mph 1023.2mb 69f 68f
2:50am 7ft 6s 6s 20 25 mph 1023.2mb 69f 69f
2:20am  -   -   -  22 25 mph 1023mb 69f 68f
1:50am 7ft 7s 5s 25 29 mph 1023.2mb 69f 68f
1:20am  -   -   -  22 27 mph 1023.5mb 69f 68f
12:50am 6ft 6s 5s 20 25 mph 1023.6mb 69f 69f
12:20am  -   -   -  20 25 mph 1023.8mb 69f 68f
Fri 02/27 11:50pm 6ft 6s 5s 20 25 mph 1024.1mb 69f 67f
11:20pm  -   -   -  20 25 mph 1024mb 69f 67f
10:50pm 6ft 6s 5s 18 22 mph 1024.3mb 69f 66f
10:20pm  -   -   -  20 22 mph 1024.2mb 69f 66f
9:50pm 6ft 6s 5s 18 22 mph 1024.3mb 69f 66f
9:20pm  -   -   -  18 22 mph 1024mb 69f 67f
8:50pm 5.5ft 6s 5s 18 22 mph 1023.5mb 68f 68f
8:20pm  -   -   -  20 22 mph 1023.2mb 68f 68f
7:50pm 6ft 6s 5s 16 20 mph 1022.9mb 68f 68f
7:20pm  -   -   -  13 20 mph 1022.7mb 68f 67f
6:50pm 5.5ft 6s 5s 16 20 mph 1022.3mb 68f 66f
6:20pm  -   -   -  16 20 mph 1022.2mb 68f 65f
5:50pm 5.5ft 6s 5s 13 16 mph 1022.3mb 68f 65f
5:20pm  -   -   -  16 18 mph 1021.8mb 68f 65f
4:50pm 6ft 6s 5s 16 18 mph 1021.4mb 68f 65f
4:20pm  -   -   -  16 20 mph 1021.3mb 68f 64f
3:50pm 6ft 6s 5s 22 25 mph 1021.1mb 68f 64f
3:20pm  -   -   -  20 25 mph 1021.2mb 68f 64f
2:50pm 6ft 6s 5s 22 27 mph 1021.3mb 68f 64f
2:20pm  -   -   -  25 29 mph 1021mb 68f 63f
1:50pm 5.5ft 6s 5s 25 29 mph 1021.1mb 68f 63f
1:20pm  -   -   -  25 27 mph 1021.6mb 68f 63f
12:50pm 5ft 6s 5s 25 27 mph 1021.9mb 68f 63f
12:20pm  -   -   -  22 27 mph 1022.2mb 68f 63f
11:50am 5ft 5s 5s 22 25 mph 1022.3mb 68f 63f
11:20am  -   -   -  22 25 mph 1022.3mb 68f 63f
10:50am 4.5ft 6s 5s 20 25 mph 1022.1mb 68f 63f
10:20am  -   -   -  22 25 mph 1021.9mb 68f 63f
9:50am 4.5ft 6s 5s 20 25 mph 1021.6mb 68f 63f
9:20am  -   -   -  20 25 mph 1021.2mb 68f 64f
8:50am 4.5ft 8s 5s 20 25 mph 1020.8mb 68f 64f
8:20am  -   -   -  20 25 mph 1020.2mb 68f 64f
7:50am 4.5ft 8s 5s 20 25 mph 1019.8mb 68f 64f
7:20am  -   -   -  20 25 mph 1019.3mb 68f 64f
6:50am 4.5ft 7s 5s 20 25 mph 1019mb 68f 64f
6:20am  -   -   -  18 22 mph 1018.7mb 68f 64f
5:50am 4.5ft 8s 5s 18 22 mph 1018.3mb 68f 63f
5:20am  -   -   -  20 25 mph 1017.6mb 68f 63f
4:50am 4.5ft 8s 5s 18 22 mph 1017.6mb 68f 63f
4:20am  -   -   -  18 22 mph 1017.4mb 68f 63f
3:50am 4.5ft 6s 5s 18 22 mph 1017.1mb 68f 63f
3:20am  -   -   -  18 22 mph 1016.8mb 68f 63f
2:50am 4.5ft 6s 5s 18 20 mph 1016.8mb 68f 63f
2:20am  -   -   -  18 20 mph 1016.9mb 68f 63f
1:50am 4.5ft 7s 5s 18 20 mph 1016.9mb 68f 63f
1:20am  -   -   -  16 20 mph 1017.1mb 68f 63f
12:50am 4.5ft 6s 5s 18 20 mph 1017.2mb 68f 63f
12:20am  -   -   -  16 18 mph 1017.5mb 68f 63f
Thu 02/26 11:50pm 4.5ft 7s 5s 13 16 mph 1017.3mb 68f 64f
11:20pm  -   -   -  13 18 mph 1017mb 68f 64f
10:50pm 4.5ft 7s 5s 13 18 mph 1017.3mb 68f 64f
10:20pm  -   -   -  16 18 mph 1017mb 68f 64f
9:50pm 4.5ft 6s 5s 13 18 mph 1016.5mb 68f 64f
9:20pm  -   -   -  13 18 mph 1016.2mb 68f 64f
8:50pm 3.5ft 10s 5s 16 18 mph 1016mb 68f 64f
8:20pm  -   -   -  16 20 mph 1015.5mb 68f 64f
7:50pm 3ft 11s 4s 16 18 mph 1014.9mb 69f 64f
7:20pm  -   -   -  13 18 mph 1014.5mb 69f 64f
6:50pm 3ft 10s 5s 13 18 mph 1014.2mb 69f 64f
6:20pm  -   -   -  13 16 mph 1013.8mb 69f 64f
5:50pm 2.5ft 11s 5s 11 13 mph 1013.3mb 69f 64f
5:20pm  -   -   -  13 16 mph 1012.8mb 69f 65f
4:50pm 3ft 11s 4s 13 16 mph 1012.4mb 69f 66f
4:20pm  -   -   -  13 16 mph 1011.9mb 69f 66f
3:50pm 2.5ft 11s 5s 11 13 mph 1011.6mb 69f 67f
3:20pm  -   -   -  7 11 mph 1011.4mb 69f 67f
2:50pm 3ft 5s 5s 7 9 mph 1011.4mb 69f 67f
2:20pm  -   -   -  9 11 mph 1011mb 69f 68f
1:50pm 3.5ft 11s 4s 11 13 mph 1010.9mb 69f 68f
1:20pm  -   -   -  11 13 mph 1010.8mb 69f 68f
12:50pm 3.5ft 5s 5s 13 16 mph 1010.8mb 69f 67f
12:20pm  -   -   -  11 13 mph 1010.9mb 69f 67f
11:50am 4.5ft 6s 5s 13 16 mph 1011.2mb 69f 67f
11:20am  -   -   -  13 18 mph 1011.4mb 69f 67f
10:50am 4.5ft 6s 5s 16 18 mph 1011.2mb 69f 67f
10:20am  -   -   -  18 20 mph 1011.1mb 69f 67f
9:50am 4.5ft 6s 5s 16 18 mph 1010.5mb 69f 67f
9:20am  -   -   -  13 18 mph 1010.2mb 69f 66f
8:50am 4.5ft 6s 5s 16 20 mph 1010.2mb 69f 66f
8:20am  -   -   -  20 22 mph 1009.7mb 69f 66f
7:50am 4.5ft 6s 5s 22 27 mph 1008.9mb 69f 66f
7:20am  -   -   -  22 27 mph 1007.5mb 69f 71f
6:50am 4.5ft 5s 4s 27 31 mph 1007mb 69f 71f
6:20am  -   -   -  25 29 mph 1006.8mb 69f 71f
5:50am 5ft 5s 5s 22 27 mph 1006.5mb 69f 71f
5:20am  -   -   -  22 27 mph 1006.2mb 69f 71f
4:50am 5ft 6s 5s 25 27 mph 1005.8mb 69f 71f
4:20am  -   -   -  27 29 mph 1005.5mb 69f 71f
3:50am 5.5ft 6s 5s 25 29 mph 1006.1mb 69f 71f
3:20am  -   -   -  22 29 mph 1006.4mb 69f 71f
2:50am 5.5ft 6s 5s 25 31 mph 1006.2mb 69f 71f
2:20am  -   -   -  20 25 mph 1007mb 69f 71f
1:50am 5ft 7s 5s 20 25 mph 1007.2mb 69f 71f
1:20am  -   -   -  22 27 mph 1007.1mb 69f 71f
12:50am 5ft 5s 5s 20 25 mph 1007.1mb 69f 71f
12:20am  -   -   -  20 25 mph 1007.4mb 69f 71f
Wed 02/25 11:50pm 6ft 6s 5s 20 25 mph 1007.9mb 69f 71f
11:20pm  -   -   -  20 25 mph 1007.6mb 69f 71f
10:50pm 6ft 5s 5s 22 29 mph 1007.2mb 69f 71f
10:20pm  -   -   -  27 31 mph 1007.2mb 70f 72f
9:50pm 5ft 5s 5s 25 29 mph 1007.3mb 70f 72f
9:20pm  -   -   -  25 31 mph 1007.3mb 70f 72f
8:50pm 4.5ft 10s 5s 25 29 mph 1007.5mb 70f 72f
8:20pm  -   -   -  22 25 mph 1008mb 70f 72f
7:50pm 4ft 11s 5s 20 25 mph 1008.4mb 70f 72f
7:20pm  -   -   -  18 22 mph 1008.4mb 70f 72f
6:50pm 3.5ft 11s 6s 18 20 mph 1008.5mb 70f 71f
6:20pm  -   -   -  16 20 mph 1008.8mb 70f 71f
5:50pm 3.5ft 11s 7s 13 16 mph 1009.2mb 70f 71f
5:20pm  -   -   -  13 16 mph 1009.4mb 70f 70f
4:50pm 4ft 11s 7s 13 16 mph 1009.5mb 70f 69f
4:20pm  -   -   -  13 16 mph 1010mb 70f 69f
3:50pm 4.5ft 11s 8s 11 16 mph 1010.5mb 70f 69f
3:20pm  -   -   -  9 11 mph 1011mb 70f 68f
2:50pm 4.5ft 10s 8s 9 11 mph 1011.3mb 70f 67f
2:20pm  -   -   -  7 9 mph 1012mb 70f 67f
1:50pm 4.5ft 11s 8s 7
mph
1012.5mb 70f 66f
1:20pm  -   -   -  4
mph
1012.8mb 70f 66f
12:50pm 4.5ft 10s 7s  -  2 mph 1013.7mb 70f 66f
12:20pm  -   -   -  2 4 mph 1014.1mb 70f 65f
11:50am 4.5ft 11s 8s 2 4 mph 1014.7mb 70f 65f
11:20am  -   -   -  2 4 mph 1015.1mb 70f 65f
10:50am 4.5ft 11s 8s 2 4 mph 1015.2mb 69f 65f
10:20am  -   -   -  4 7 mph 1015.2mb 69f 65f
9:50am 4.5ft 11s 8s 4 9 mph 1015.1mb 69f 65f
9:20am  -   -   -  7 9 mph 1015.1mb 69f 65f
8:50am 4.5ft 11s 7s 9 13 mph 1015mb 69f 64f
8:20am  -   -   -  9 13 mph 1014.8mb 69f 64f
7:50am 4.5ft 11s 7s 7 11 mph 1014.6mb 69f 64f
7:20am  -   -   -  13 16 mph 1014.5mb 69f 64f
6:50am 5ft 11s 7s 11 16 mph 1014.3mb 69f 64f
6:20am  -   -   -  13 18 mph 1013.7mb 69f 64f
5:50am 5ft 11s 7s 13 16 mph 1013.4mb 69f 64f
5:20am  -   -   -  13 16 mph 1013.1mb 69f 64f
4:50am 5ft 11s 7s 13 16 mph 1012.9mb 69f 64f
4:20am  -   -   -  13 16 mph 1012.7mb 69f 64f
3:50am 4.5ft 11s 7s 13 16 mph 1012.8mb 69f 64f
3:20am  -   -   -  9 11 mph 1013mb 69f 65f
2:50am 5ft 10s 7s 11 13 mph 1013.2mb 69f 65f
2:20am  -   -   -  11
mph
1013.2mb 69f 66f
1:50am 4.5ft 11s 7s 9 11 mph 1013.4mb 69f 67f
1:20am  -   -   -  11 13 mph 1013.3mb 69f 67f
12:50am 4.5ft 12s 7s 11 16 mph 1013.6mb 70f 67f
12:20am  -   -   -  13 16 mph 1013.4mb 70f 68f
Tue 02/24 11:50pm 5.5ft 12s 8s 13 16 mph 1013.7mb 70f 68f
11:20pm  -   -   -  13 16 mph 1013.9mb 70f 68f
10:50pm 6.5ft 12s 8s 13 18 mph 1014.2mb 69f 68f
10:20pm  -   -   -  13 18 mph 1014.4mb 69f 68f